Regional Weather Roundup
Issued by NWS

Home | Current Version | Previous Version | Graphics & Text | Print | Product List | Glossary On
Versions: 1 2 3 4 5 6 7 8 9 10 11 12 13 14 15 16 17 18 19 20 21 22 23 24 25 26 27 28 29 30 31 32 33 34 35 36 37 38 39 40 41 42 43 44 45 46 47 48 49 50
000
ASUS43 KDMX 171506
RWRIA

WEATHER ROUNDUP FOR IOWA
NATIONAL WEATHER SERVICE DES MOINES IA
900 AM CST WED JAN 17 2018

NOTE: "FAIR" INDICATES FEW OR NO CLOUDS BELOW 12,000 FEET WITH NO
SIGNIFICANT WEATHER AND/OR OBSTRUCTIONS TO VISIBILITY.

* - THESE STATIONS ARE NOT NWS STATIONS...THUS NOT UNDER NWS
QUALITY CONTROL.  THEY ALSO DO NOT REPORT WEATHER SUCH
AS PRECIPITATION OR FOG.

IAZ001>003-012>014-020>022-031>034-043>046-171600-
   NORTHWEST IOWA

CITY           SKY/WX    TMP DP  RH WIND       PRES   REMARKS
CARROLL *      CLOUDY     9   1  72 SW18      30.47S WCI -10
CHEROKEE *     CLOUDY    11   4  73 S13       30.40F WCI  -4
DENISON *      CLOUDY    10   3  72 SW12G18   30.48F WCI  -4
LE MARS *      CLOUDY     9   3  78 S13       30.39F WCI  -7
ORANGE CITY *  CLOUDY     9   5  85 SW12      30.36S WCI  -6
SHELDON *      CLOUDY     9   1  72 S14       30.34S WCI  -8
SIOUX CITY     CLOUDY    10   3  73 S6        30.42F WCI   0
SPENCER        CLOUDY    11   1  64 SW16      30.36F WCI  -6
STORM LAKE *   CLOUDY     9   3  78 SW18G24   30.39S WCI -10
$$

IAZ055>058-069>071-079>083-090>094-171600-
   SOUTHWEST IOWA

CITY           SKY/WX    TMP DP  RH WIND       PRES   REMARKS
ATLANTIC *     CLOUDY     3   0  85 S9        30.54S WCI -11
AUDUBON *      CLOUDY     7   1  78 S9        30.49F WCI  -7
CLARINDA *     CLOUDY     1  -2  85 S6          N/A  WCI -10
COUNCIL BLFS * CLOUDY     7   5  92 S13       30.51S WCI  -9
CRESTON *      CLOUDY     5   3  92 SW8       30.55S WCI  -8
HARLAN  *      CLOUDY     1   0  92 S8        30.55S WCI -12
LAMONI         CLOUDY     4   0  83 SW8       30.58S WCI  -9
RED OAK *      CLOUDY     3   0  85 S7        30.57S WCI  -9
SHENANDOAH *   CLOUDY     3   0  85 SW6       30.59F WCI  -8
$$

IAZ047>049-059>061-072>074-084-171600-
   CENTRAL IOWA

CITY           SKY/WX    TMP DP  RH WIND       PRES   REMARKS
AMES           CLOUDY     3   0  87 SW7       30.52S WCI  -9
ANKENY *       CLOUDY     7   3  85 SW6       30.56S WCI  -3
BOONE *        CLOUDY     5   1  85 SW12      30.49R WCI -11
CHARITON *     CLOUDY     5   1  85 SW10      30.57S WCI -10
DES MOINES     CLOUDY     2  -2  83 S6        30.54F WCI  -9
GRINNELL*      MOSUNNY    0  -3  85 SW10      30.54F WCI -16
KNOXVILLE *    CLOUDY     5  -2  72 SW12      30.55F WCI -11
MARSHALLTOWN   CLOUDY     3  -1  83 SW13      30.51S WCI -14
NEWTON *       CLOUDY     1  -2  85 SW9       30.54F WCI -14
PELLA *        CLOUDY     3  -1  81 SW5       30.58S WCI  -6
PERRY *          N/A      6   2  85 S7        30.52S WCI  -6
$$

IAZ004>006-015-016-023>025-035-036-171600-
   NORTH CENTRAL IOWA

CITY           SKY/WX    TMP DP  RH WIND       PRES   REMARKS
ALGONA *       CLOUDY     9   9 100 S16       30.39S WCI  -9
CLARION *      CLOUDY     3   0  85 S12       30.45F WCI -13
ESTHERVILLE    CLOUDY    10   2  69 SW15      30.34F WCI  -7
FORT DODGE *   CLOUDY     7   1  76 SW12      30.46S WCI  -8
MASON CITY     CLOUDY     7  -1  70 SW15G23   30.42F WCI -10
FOREST CITY *    N/A      7   3  85 SW10      30.40F WCI  -8
WEBSTER CITY * CLOUDY     7   1  78 SW14      30.45S WCI -10
IOWA FALLS *     N/A      7   2  80 SW14      30.48S HAZE    WCI -10
$$

IAZ007>011-017>019-026>030-037>042-050>054-066-171600-
   NORTHEAST IOWA

CITY           SKY/WX    TMP DP  RH WIND       PRES   REMARKS
CEDAR RAPIDS     N/A      2  -3  80 SW8       30.53S WCI -12
CHARLES CITY *   N/A      1  -2  85 SW8       30.45S WCI -12
CLINTON *        N/A      2  -2  83 SW9       30.57R WCI -13
DECORAH *        N/A      7   1  78 SW6       30.41F WCI  -3
DUBUQUE          N/A      0  -4  83 SW9       30.48S WCI -15
MONTICELLO *     N/A      3  -2  78 SW6       30.53S WCI  -8
OELWEIN *      PTSUNNY    3   3 100 SW10      30.47F WCI -12
WATERLOO         N/A      4  -2  76 SW10      30.49F WCI -11
$$

IAZ064-065-067-068-078-171600-
   EAST CENTRAL IOWA

CITY           SKY/WX    TMP DP  RH WIND       PRES   REMARKS
DAVENPORT        N/A      3  -3  76 SW12      30.59R WCI -13
IOWA CITY        N/A      2  -5  72 SW5       30.60R WCI  -8
MT. PLEASANT * CLOUDY     1  -4  78 SW7       30.61S WCI -11
MUSCATINE *      N/A      1  -4  78 S5        30.62S WCI  -8
QUAD CITIES      N/A      3  -2  79 SW8       30.59S WCI -10
$$

IAZ062-063-075>077-085>089-095>099-171600-
   SOUTHEAST IOWA

CITY           SKY/WX    TMP DP  RH WIND       PRES   REMARKS
BURLINGTON     CLOUDY     1  -4  79 SW6       30.61S WCI -10
FAIRFIELD *    CLOUDY     3  -4  72 SW10      30.59S WCI -12
FORT MADISON * CLOUDY     1  -2  85 SW7       30.62R WCI -11
KEOKUK *       CLOUDY     1  -2  85 SW8       30.63S WCI -12
OSKALOOSA *      N/A      2  -1  85 SW6       30.59S WCI  -9
OTTUMWA        CLOUDY     2  -3  80 SW6       30.58S WCI  -9
WASHINGTON *   CLOUDY     1  -2  85 SW10      30.60S WCI -14
$$

ABBREVIATIONS USED IN REMARKS
   TC - TEMPERATURES IN CELSIUS
  WCI - WIND CHILL INDEX
   HX - HEAT INDEX
  VSB - VISIBILITY
$$





USA.gov is the U.S. government's official web portal to all federal, state and local government web resources and services.